Ankeny, IA

11:31 AM CDT on October 18, 2017 (GMT -0500)
Ankeny Regional

Weather History for KIKV - May, 2013

Change the Weather History Date:

Tuesday, May 14, 2013

  Actual Average (KDSM) Record (KDSM)
Temperature  
Mean Temperature 76 °F -  
Max Temperature 93 °F 73 °F 94 °F (2013)
Min Temperature 59 °F 50 °F 34 °F (1888)
Cooling Degree Days 11    
Growing Degree Days 26 (Base 50)    
Moisture  
Dew Point 56 °F    
Average Humidity 49    
Maximum Humidity 82    
Minimum Humidity 28    
Precipitation  
Precipitation 0.00 in - - ()
Sea Level Pressure  
Sea Level Pressure 29.72 in    
Wind  
Wind Speed 10 mph (SSW)    
Max Wind Speed 24 mph    
Max Gust Speed 33 mph    
Visibility 10 miles    
Events      
Averages and records for this station are not official NWS values.
T = Trace of Precipitation, MM = Missing Value Source: NWS Daily Summary

Daily Weather History Graph

Daily Weather History Graph

Search for Another Location

Airport or City:

Trip Planner

Search our weather history database for the weather conditions in past years. The results will help you decide how hot, cold, wet, or windy it might be!

Date:

Astronomy

May. 14, 2013 Rise Set
Actual Time 5:55 AM CDT 8:26 PM CDT
Civil Twilight 5:23 AM CDT 8:58 PM CDT
Nautical Twilight 4:44 AM CDT 9:37 PM CDT
Astronomical Twilight 4:00 AM CDT 10:22 PM CDT
Moon 9:35 AM CDT (5/14) No Moon Set
Length of Visible Light 15h 34m
Length of Day
14h 31m
Waxing Crescent, 19% of the Moon is Illuminated
May 14
Waxing Crescent
May 17
First Quarter
May 24
Full
May 31
Last Quarter
Jun 8
New

Hourly Weather History & Observations

Time (CDT) Temp. Heat Index Dew Point Humidity Pressure Visibility Wind Dir Wind Speed Gust Speed Precip Events Conditions
12:15 AM 62.6 °F - 50.0 °F 63% 29.84 in 10.0 mi South 8.1 mph - N/A   Clear
12:35 AM 62.6 °F - 50.0 °F 63% 29.83 in 10.0 mi South 8.1 mph - N/A   Clear
12:55 AM 62.6 °F - 51.8 °F 68% 29.83 in 10.0 mi South 6.9 mph - N/A   Clear
1:15 AM 62.6 °F - 51.8 °F 68% 29.82 in 10.0 mi SSW 8.1 mph - N/A   Clear
1:35 AM 64.4 °F - 51.8 °F 64% 29.81 in 10.0 mi SSW 9.2 mph - N/A   Clear
1:55 AM 62.6 °F - 51.8 °F 68% 29.81 in 10.0 mi SSW 6.9 mph - N/A   Clear
2:15 AM 62.6 °F - 53.6 °F 72% 29.80 in 10.0 mi SSW 8.1 mph - N/A   Clear
2:35 AM 64.4 °F - 53.6 °F 68% 29.79 in 10.0 mi SW 9.2 mph - N/A   Clear
2:55 AM 66.2 °F - 53.6 °F 64% 29.79 in 10.0 mi SW 10.4 mph 19.6 mph N/A   Clear
3:15 AM 66.2 °F - 53.6 °F 64% 29.78 in 10.0 mi SW 10.4 mph 17.3 mph N/A   Clear
3:35 AM 66.2 °F - 53.6 °F 64% 29.78 in 10.0 mi WSW 10.4 mph 16.1 mph N/A   Clear
3:55 AM 66.2 °F - 53.6 °F 64% 29.78 in 10.0 mi SW 8.1 mph - N/A   Clear
4:15 AM 64.4 °F - 53.6 °F 68% 29.78 in 10.0 mi WSW 8.1 mph - N/A   Clear
4:35 AM 64.4 °F - 53.6 °F 68% 29.78 in 10.0 mi SW 8.1 mph - N/A   Clear
4:55 AM 62.6 °F - 53.6 °F 72% 29.78 in 10.0 mi SW 6.9 mph - N/A   Clear
5:15 AM 62.6 °F - 53.6 °F 72% 29.78 in 10.0 mi SW 5.8 mph - N/A   Clear
5:35 AM 62.6 °F - 53.6 °F 72% 29.78 in 10.0 mi SW 4.6 mph - N/A   Clear
5:55 AM 60.8 °F - 53.6 °F 77% 29.78 in 10.0 mi SSW 4.6 mph - N/A   Clear
6:15 AM 59.0 °F - 53.6 °F 82% 29.78 in 10.0 mi SSW 4.6 mph - N/A   Clear
6:35 AM 60.8 °F - 53.6 °F 77% 29.79 in 10.0 mi SW 3.5 mph - N/A   Clear
6:55 AM 64.4 °F - 55.4 °F 73% 29.79 in 10.0 mi SW 4.6 mph - N/A   Clear
7:15 AM 64.4 °F - 55.4 °F 73% 29.79 in 10.0 mi Calm Calm - N/A   Clear
7:35 AM 66.2 °F - 55.4 °F 68% 29.79 in 10.0 mi SW 5.8 mph - N/A   Clear
7:55 AM 66.2 °F - 57.2 °F 73% 29.79 in 10.0 mi Calm Calm - N/A   Clear
8:15 AM 69.8 °F - 57.2 °F 64% 29.79 in 10.0 mi Calm Calm - N/A   Clear
8:35 AM 71.6 °F - 57.2 °F 60% 29.79 in 10.0 mi SW 4.6 mph - N/A   Clear
8:55 AM 71.6 °F - 59.0 °F 64% 29.78 in 10.0 mi South 3.5 mph - N/A   Clear
9:15 AM 73.4 °F - 59.0 °F 61% 29.78 in 10.0 mi SSW 5.8 mph - N/A   Clear
9:35 AM 75.2 °F - 59.0 °F 57% 29.78 in 10.0 mi SW 4.6 mph - N/A   Clear
9:55 AM 77.0 °F - 59.0 °F 54% 29.77 in 10.0 mi South 5.8 mph - N/A   Clear
10:15 AM 78.8 °F - 60.8 °F 54% 29.76 in 10.0 mi SSW 6.9 mph - N/A   Clear
10:35 AM 78.8 °F - 60.8 °F 54% 29.76 in 10.0 mi SSW 9.2 mph - N/A   Clear
10:55 AM 80.6 °F 81.8 °F 62.6 °F 54% 29.75 in 10.0 mi South 8.1 mph - N/A   Clear
11:15 AM 82.4 °F 83.4 °F 62.6 °F 51% 29.75 in 10.0 mi SSW 10.4 mph - N/A   Clear
11:35 AM 84.2 °F 85.0 °F 62.6 °F 48% 29.75 in 10.0 mi SSW 12.7 mph - N/A   Clear
11:55 AM 86.0 °F 86.6 °F 62.6 °F 45% 29.74 in 10.0 mi South 12.7 mph - N/A   Clear
12:15 PM 86.0 °F 86.1 °F 60.8 °F 43% 29.73 in 10.0 mi South 11.5 mph - N/A   Clear
12:35 PM 87.8 °F 87.6 °F 60.8 °F 40% 29.72 in 10.0 mi South 12.7 mph 18.4 mph N/A   Clear
12:55 PM 89.6 °F 89.5 °F 60.8 °F 38% 29.71 in 10.0 mi South 11.5 mph 19.6 mph N/A   Clear
1:15 PM 91.4 °F 90.7 °F 59.0 °F 34% 29.70 in 10.0 mi South 16.1 mph - N/A   Clear
1:35 PM 91.4 °F 90.7 °F 59.0 °F 34% 29.70 in 10.0 mi South 13.8 mph 20.7 mph N/A   Clear
1:55 PM 93.2 °F 93.3 °F 60.8 °F 34% 29.69 in 10.0 mi South 15.0 mph 23.0 mph N/A   Clear
2:15 PM 93.2 °F 92.6 °F 59.0 °F 32% 29.68 in 10.0 mi SSW 17.3 mph 24.2 mph N/A   Clear
2:35 PM 93.2 °F 92.6 °F 59.0 °F 32% 29.67 in 10.0 mi South 19.6 mph - N/A   Clear
2:55 PM 93.2 °F 92.6 °F 59.0 °F 32% 29.67 in 10.0 mi South 21.9 mph - N/A   Clear
3:15 PM 93.2 °F 92.6 °F 59.0 °F 32% 29.66 in 10.0 mi SSW 18.4 mph 24.2 mph N/A   Clear
3:35 PM 93.2 °F 93.3 °F 60.8 °F 34% 29.66 in 10.0 mi SSW 18.4 mph 28.8 mph N/A   Clear
3:55 PM 93.2 °F 93.3 °F 60.8 °F 34% 29.65 in 10.0 mi SSW 18.4 mph 28.8 mph N/A   Clear
4:15 PM 93.2 °F 92.6 °F 59.0 °F 32% 29.65 in 10.0 mi SSW 20.7 mph 31.1 mph N/A   Clear
4:35 PM 93.2 °F 93.3 °F 60.8 °F 34% 29.64 in 10.0 mi South 20.7 mph 27.6 mph N/A   Clear
4:55 PM 93.2 °F 91.9 °F 57.2 °F 30% 29.62 in 10.0 mi SSW 23.0 mph 33.4 mph N/A   Clear
5:15 PM 93.2 °F 91.3 °F 55.4 °F 28% 29.62 in 10.0 mi SSW 23.0 mph 32.2 mph N/A   Clear
5:35 PM 91.4 °F 89.4 °F 55.4 °F 29% 29.62 in 10.0 mi SSW 24.2 mph 32.2 mph N/A   Clear
5:55 PM 91.4 °F 89.4 °F 55.4 °F 29% 29.62 in 10.0 mi SSW 20.7 mph 32.2 mph N/A   Clear
6:15 PM 91.4 °F 89.9 °F 57.2 °F 31% 29.61 in 10.0 mi SSW 24.2 mph - N/A   Clear
6:35 PM 89.6 °F 88.1 °F 57.2 °F 33% 29.61 in 10.0 mi SSW 17.3 mph 29.9 mph N/A   Clear
6:55 PM 89.6 °F 88.1 °F 57.2 °F 33% 29.61 in 10.0 mi SSW 17.3 mph - N/A   Clear
7:15 PM 89.6 °F 87.7 °F 55.4 °F 31% 29.61 in 10.0 mi SSW 13.8 mph 21.9 mph N/A   Clear
7:35 PM 87.8 °F 86.1 °F 55.4 °F 33% 29.61 in 10.0 mi SSW 13.8 mph 21.9 mph N/A   Clear
7:55 PM 87.8 °F 86.1 °F 55.4 °F 33% 29.61 in 10.0 mi SSW 12.7 mph - N/A   Clear
8:15 PM 86.0 °F 84.2 °F 53.6 °F 33% 29.62 in 10.0 mi SSW 10.4 mph 16.1 mph N/A   Clear
8:35 PM 84.2 °F 82.8 °F 53.6 °F 35% 29.63 in 10.0 mi SSW 11.5 mph - N/A   Clear
8:55 PM 84.2 °F - 51.8 °F 33% 29.63 in 10.0 mi SW 9.2 mph 16.1 mph N/A   Clear
9:15 PM 86.0 °F - 50.0 °F 29% 29.64 in 10.0 mi SW 12.7 mph - N/A   Clear
9:35 PM 84.2 °F - 50.0 °F 30% 29.65 in 10.0 mi SW 11.5 mph - N/A   Clear
9:55 PM 84.2 °F - 50.0 °F 30% 29.67 in 10.0 mi SW 10.4 mph - N/A   Clear
10:15 PM 82.4 °F - 50.0 °F 32% 29.68 in 10.0 mi WSW 10.4 mph - N/A   Clear
10:35 PM 82.4 °F - 50.0 °F 32% 29.71 in 10.0 mi West 10.4 mph - N/A   Clear
10:55 PM 80.6 °F - 51.8 °F 37% 29.73 in 10.0 mi West 9.2 mph - N/A   Clear
11:15 PM 77.0 °F - 51.8 °F 41% 29.73 in 10.0 mi SW 6.9 mph - N/A   Clear
11:35 PM 77.0 °F - 51.8 °F 41% 29.73 in 10.0 mi SSW 8.1 mph - N/A   Clear
11:55 PM 78.8 °F - 51.8 °F 39% 29.74 in 10.0 mi West 13.8 mph 21.9 mph N/A   Clear